Printer-friendly version
Follow the MPC on Twitter Follow the MPC on Facebook The MPC blog
Minor Planet Center

MPEC 2010-P41 : 2010 PQ10

The following Minor Planet Electronic Circular may be linked-to from your own Web pages, but must not otherwise be redistributed electronically.

A form allowing access to any MPEC is at the bottom of this page.


Read MPEC 2010-P40 Read MPEC 2010-P42


M.P.E.C. 2010-P41                                Issued 2010 Aug. 8, 17:11 UT

     The Minor Planet Electronic Circulars contain information on unusual
         minor planets and routine data on comets.  They are published
   on behalf of Commission 20 of the International Astronomical Union by the
          Minor Planet Center, Smithsonian Astrophysical Observatory,
                          Cambridge, MA 02138, U.S.A.

             Prepared using the Tamkin Foundation Computer Network

                              MPC@CFA.HARVARD.EDU
       URL http://www.minorplanetcenter.org/iau/mpc.html  ISSN 1523-6714

                                   2010 PQ10

Observations:
     K10P10Q*QC2010 08 06.56672 20 44 18.82 -46 23 14.7          18.6 R EP041E12
     K10P10Q QC2010 08 06.57974 20 44 12.30 -46 24 37.4          19.1 R EP041E12
     K10P10Q QC2010 08 06.62558 20 43 49.68 -46 29 26.9          18.9 R EP041E12
     K10P10Q QC2010 08 06.63050 20 43 47.27 -46 29 58.1          18.9 R EP041E12
     K10P10Q QC2010 08 06.63572 20 43 44.70 -46 30 30.8          19.2 R EP041E12
     K10P10Q QC2010 08 06.68154 20 43 22.20 -46 35 15.9          18.6 R EP041E12
     K10P10Q QC2010 08 06.76987 20 42 39.45 -46 44 17.9          19.1 R EP041E12
     K10P10Q  C2010 08 06.81738 20 42 17.75 -46 49 23.4          18.5 R EP041D21
     K10P10Q  C2010 08 06.82106 20 42 15.88 -46 49 46.4          18.7 R EP041D21
     K10P10Q  C2010 08 06.82475 20 42 14.21 -46 50 09.1          18.3 R EP041D21
     K10P10Q  C2010 08 06.82844 20 42 12.40 -46 50 30.5          18.5 R EP041D21
     K10P10Q  C2010 08 06.83213 20 42 10.54 -46 50 53.2          18.7 R EP041D21
     K10P10Q  C2010 08 06.83580 20 42 08.80 -46 51 16.0          18.3 R EP041D21
     K10P10Q QC2010 08 07.46092 20 37 20.03 -47 55 19.7          19.3 R EP041E12
     K10P10Q QC2010 08 07.46638 20 37 17.31 -47 55 53.3          18.9 R EP041E12
     K10P10Q QC2010 08 07.47346 20 37 13.76 -47 56 36.5          19.2 R EP041E12
     K10P10Q QC2010 08 07.47733 20 37 11.83 -47 56 59.9                 EP041E12
     K10P10Q  C2010 08 07.50385 20 37 00.40 -47 59 28.3          18.5 R EP041D21
     K10P10Q  C2010 08 07.50753 20 36 58.66 -47 59 51.4          19.0 R EP041D21
     K10P10Q  C2010 08 07.51120 20 36 56.90 -48 00 14.7          18.6 R EP041D21
     K10P10Q  C2010 08 07.51488 20 36 54.99 -48 00 37.1                 EP041D21
     K10P10Q  C2010 08 07.51858 20 36 53.20 -48 00 58.8                 EP041D21
     K10P10Q  C2010 08 07.52225 20 36 51.33 -48 01 20.7                 EP041D21
     K10P10Q  C2010 08 07.62788 20 35 58.46 -48 12 02.3          17.9 R EP041D21
     K10P10Q  C2010 08 07.63155 20 35 56.50 -48 12 24.5          17.8 R EP041D21
     K10P10Q  C2010 08 07.63523 20 35 54.74 -48 12 45.0          17.7 R EP041D21
     K10P10Q  C2010 08 08.53822 20 28 41.50 -49 38 58.3          18.5 R EP041D21
     K10P10Q  C2010 08 08.54257 20 28 39.29 -49 39 23.2          19.2 R EP041D21
     K10P10Q  C2010 08 08.54693 20 28 37.05 -49 39 48.1          18.5 R EP041D21
     K10P10Q  C2010 08 08.55131 20 28 34.87 -49 40 12.9          18.6 R EP041D21

Observer details:
D21 Shenton Park.  Observers P. Luckas, P. R. Holvorcem.  Measurer
    P. R. Holvorcem.  0.35-m f/8.6 Schmidt-Cassegrain + CCD.
E12 Siding Spring Survey.  Observer G. J. Garradd.  0.5-m Uppsala Schmidt
    + CCD.

Orbital elements:
2010 PQ10                                                Earth MOID = 0.1329 AU
Epoch 2010 July 23.0 TT = JDT 2455400.5                 MPC
M 167.63971              (2000.0)            P               Q
n   1.27331728     Peri.    6.82713     -0.63386753     -0.70623645
a   0.8430338      Node   123.05335     +0.69064112     -0.70036730
e   0.3753324      Incl.   22.10052     +0.34817638     +0.10351677
P   0.77           H   21.4           G   0.15           U   8
Residuals in seconds of arc
100806 E12  0.4+  0.4-    100806 D21  0.1+  1.0+    100807 D21  0.5-  0.5-
100806 E12  0.5-  0.1-    100806 D21  0.7-  0.8+    100807 D21  0.2-  0.5+
100806 E12  0.2-  0.1+    100806 D21  0.3-  0.3+    100807 D21  0.7-  1.2+
100806 E12  0.0   0.2-    100807 E12  0.0   0.1-    100807 D21  0.2+  0.5-
100806 E12  0.1+  0.2-    100807 E12  0.1+  0.2-    100807 D21  0.8-  0.8-
100806 E12  0.2+  0.1+    100807 E12  0.1-  0.1-    100807 D21  0.2+  0.6+
100806 E12  0.4+  0.2+    100807 E12  0.0   0.2+    100808 D21  0.2+  0.1+
100806 D21  0.0   0.7+    100807 D21  0.8-  0.5+    100808 D21  0.2+  0.1-
100806 D21  0.8-  0.2+    100807 D21  0.1-  0.0     100808 D21  0.0   0.2-
100806 D21  0.4+  0.0     100807 D21  0.4+  0.7-    100808 D21  0.5+  0.2-

Ephemeris:
2010 PQ10                a,e,i = 0.84, 0.38, 22                  q = 0.5266
Date    TT    R. A. (2000) Decl.     Delta      r     Elong.  Phase     V
2010 08 02    21 17.28   -37 12.0    0.153    1.159   159.6    17.8    18.6
2010 08 12    20 00.02   -54 17.3    0.183    1.155   137.4    36.4    19.5
2010 08 22    18 42.81   -61 23.4    0.233    1.142   118.8    50.9    20.4
2010 09 01    17 51.14   -63 29.6    0.289    1.121   105.5    60.2    21.1
2010 09 11    17 24.01   -64 03.9    0.343    1.092    95.1    66.7    21.6
2010 09 21    17 11.87   -64 20.5    0.389    1.055    86.5    71.9    22.0
2010 10 01    17 06.65   -64 36.9    0.426    1.009    78.7    76.8    22.2
2010 10 11    17 02.72   -64 50.6    0.451    0.954    71.3    82.2    22.4
2010 10 21    16 54.76   -64 48.6    0.462    0.892    63.7    88.7    22.6
2010 10 31    16 37.42   -63 55.5    0.459    0.824    55.4    97.4    22.8

Carl W. Hergenrother         (C) Copyright 2010 MPC           M.P.E.C. 2010-P41

Read MPEC 2010-P40 Read MPEC 2010-P42


MPEC number:

Enter an MPEC number in one of the following forms:

  • 1997-B01 (the full form)
  • J97B01 (the packed version of the full form)
  • B01 (the abbreviated form)

Valid HTML 4.01!